This demonstration page uses our WeatherBlox Daily Observations layout. Learn more.

Left ArrowRight Arrow

Hourly Observations for July 21, 2022

Temp ( °F °C ) Dew Point ( °F °C ) Humidity (%) Winds ( mph kmh ) Pressure ( in mb ) Visibility ( mi km ) Precip ( " mm )
12:52 am 00:52 Clear 74 23.3 62 16.7 67 67 SE 6 9 29.85 1011 10 16 0.00 0.00
1:52 am 01:52 Clear 72 22.2 63 17.2 73 73 SE 6 9 29.84 1010 10 16 0.00 0.00
2:52 am 02:52 Clear 71 21.7 63 17.2 76 76 SE 5 7 29.83 1010 10 16 0.00 0.00
3:52 am 03:52 Clear 70 21.1 63 17.2 79 79 SE 7 11 29.83 1010 10 16 0.00 0.00
4:52 am 04:52 Clear 70 21.1 62 16.7 76 76 SSE 5 7 29.83 1010 10 16 0.00 0.00
5:52 am 05:52 Mostly Clear 65 18.3 62 16.7 90 90 NNW 6 9 29.87 1012 10 16 0.00 0.00
6:52 am 06:52 Mostly Cloudy 71 21.7 64 17.8 79 79 Calm 29.88 1012 10 16 0.00 0.00
7:52 am 07:52 Partly Cloudy 74 23.3 66 18.9 76 76 SE 10 17 29.86 1011 10 16 0.00 0.00
8:52 am 08:52 Partly Cloudy 79 26.1 66 18.9 65 65 NW 3 6 29.88 1012 10 16 0.00 0.00
9:52 am 09:52 Mostly Sunny 84 28.9 65 18.3 53 53 NW 9 15 29.88 1012 10 16 0.00 0.00
10:52 am 10:52 Mostly Sunny 84 28.9 67 19.4 57 57 NNW 12 19 29.91 1013 10 16 0.00 0.00
11:52 am 11:52 Sunny 86 30 68 20 55 55 NNW 12 19 29.92 1013 10 16 0.00 0.00
12:52 pm 12:52 Sunny 89 31.7 68 20 50 50 NNW 15 24 29.91 1013 10 16 0.00 0.00
1:52 pm 13:52 Sunny 91 32.8 60 15.6 35 35 NNE 15 24 29.90 1013 10 16 0.00 0.00
2:52 pm 14:52 Sunny 92 33.3 54 12.2 28 28 N 12 19 29.90 1013 10 16 0.00 0.00
3:52 pm 15:52 Sunny 91 32.8 57 13.9 32 32 ENE 9 15 29.91 1013 10 16 0.00 0.00
4:52 pm 16:52 Sunny 91 32.8 59 15 34 34 ENE 13 20 29.90 1013 10 16 0.00 0.00
5:52 pm 17:52 Sunny 90 32.2 58 14.4 34 34 ENE 12 19 29.89 1012 10 16 0.00 0.00
6:52 pm 18:52 Sunny 88 31.1 59 15 38 38 E 10 17 29.86 1011 10 16 0.00 0.00
7:52 pm 19:52 Mostly Sunny 85 29.4 61 16.1 45 45 SSE 8 13 29.86 1011 10 16 0.00 0.00
8:52 pm 20:52 Partly Cloudy 81 27.2 63 17.2 54 54 ESE 6 9 29.87 1011 10 16 0.00 0.00
9:52 pm 21:52 Mostly Cloudy 80 26.7 59 15 49 49 SE 7 11 29.86 1011 10 16 0.00 0.00
10:52 pm 22:52 Mostly Cloudy 79 26.1 59 15 50 50 SSE 9 15 29.88 1012 10 16 0.00 0.00
11:52 pm 23:52 Cloudy 80 26.7 57 13.9 45 45 SSE 13 20 29.86 1011 10 16 0.00 0.00

Powered by AerisWeather